Chatham, MA

10:12 PM EDT on March 24, 2017 (GMT -0400)
Chatham Municipal

Weather History for KCQX - December, 2013

Change the Weather History Date:

Monday, December 16, 2013

  Actual Average Record
Temperature  
Mean Temperature 28 °F -  
Max Temperature 32 °F 42 °F 53 °F (1981)
Min Temperature 23 °F 29 °F 18 °F (2004)
Degree Days  
Heating Degree Days 38    
Moisture  
Dew Point 11 °F    
Average Humidity 51    
Maximum Humidity 72    
Minimum Humidity 35    
Precipitation  
Precipitation 0.00 in - - ()
Sea Level Pressure  
Sea Level Pressure 29.99 in    
Wind  
Wind Speed 7 mph (West)    
Max Wind Speed 15 mph    
Max Gust Speed 25 mph    
Visibility 10 miles    
Events      
Averages and records for this station are not official NWS values.
T = Trace of Precipitation, MM = Missing Value Source: NWS Daily Summary

Daily Weather History Graph

Daily Weather History Graph

Search for Another Location

Airport or City:

Trip Planner

Search our weather history database for the weather conditions in past years. The results will help you decide how hot, cold, wet, or windy it might be!

Date:

Astronomy

Dec. 16, 2013 Rise Set
Actual Time 7:00 AM EST 4:10 PM EST
Civil Twilight 6:29 AM EST 4:42 PM EST
Nautical Twilight 5:54 AM EST 5:17 PM EST
Astronomical Twilight 5:20 AM EST 5:51 PM EST
Moon 3:59 PM EST (12/16) 6:05 AM EST (12/16)
Length of Visible Light 10h 12m
Length of Day
9h 09m
Full, 100% of the Moon is Illuminated
Dec 16
Full
Dec 17
Full
Dec 25
Last Quarter
Jan 1
New
Jan 7
First Quarter

Hourly Weather History & Observations

Time (EST) Temp. Windchill Dew Point Humidity Pressure Visibility Wind Dir Wind Speed Gust Speed Precip Events Conditions
12:52 AM 28.9 °F 21.9 °F 19.9 °F 69% 29.79 in 10.0 mi West 6.9 mph - N/A   Clear
1:52 AM 28.0 °F 24.2 °F 18.0 °F 66% 29.80 in 10.0 mi Variable 3.5 mph - N/A   Clear
2:52 AM 28.0 °F - 19.9 °F 72% 29.81 in 10.0 mi Calm Calm - N/A   Overcast
3:52 AM 30.0 °F 23.2 °F 21.0 °F 69% 29.81 in 10.0 mi West 6.9 mph - N/A   Overcast
4:52 AM 30.0 °F 23.2 °F 21.0 °F 69% 29.82 in 10.0 mi West 6.9 mph - N/A   Partly Cloudy
5:52 AM 30.0 °F 24.1 °F 19.9 °F 66% 29.84 in 10.0 mi Variable 5.8 mph - N/A   Mostly Cloudy
6:52 AM 28.9 °F 23.9 °F 19.9 °F 69% 29.88 in 10.0 mi Variable 4.6 mph - N/A   Partly Cloudy
7:52 AM 28.9 °F 20.4 °F 15.1 °F 56% 29.89 in 10.0 mi WNW 9.2 mph - N/A   Clear
8:52 AM 28.9 °F 18.2 °F 12.9 °F 51% 29.92 in 10.0 mi WNW 13.8 mph 25.3 mph N/A   Mostly Cloudy
9:52 AM 30.9 °F 22.2 °F 12.0 °F 46% 29.95 in 10.0 mi West 10.4 mph 23.0 mph N/A   Clear
10:52 AM 32.0 °F 25.6 °F 9.0 °F 38% 29.95 in 10.0 mi West 6.9 mph 21.9 mph N/A   Clear
11:52 AM 32.0 °F 24.2 °F 9.0 °F 38% 29.96 in 10.0 mi West 9.2 mph 18.4 mph N/A   Clear
12:52 PM 30.9 °F 20.2 °F 6.1 °F 35% 29.96 in 10.0 mi West 15.0 mph 21.9 mph N/A   Clear
1:52 PM 30.9 °F 22.8 °F 6.1 °F 35% 29.97 in 10.0 mi NW 9.2 mph 17.3 mph N/A   Clear
2:52 PM 30.0 °F 22.4 °F 5.0 °F 35% 30.00 in 10.0 mi WNW 8.1 mph - N/A   Clear
3:52 PM 28.9 °F 21.1 °F 5.0 °F 36% 30.04 in 10.0 mi WNW 8.1 mph 20.7 mph N/A   Clear
4:52 PM 27.0 °F 21.6 °F 6.1 °F 41% 30.08 in 10.0 mi WSW 4.6 mph - N/A   Mostly Cloudy
5:52 PM 26.1 °F 18.4 °F 6.1 °F 43% 30.11 in 10.0 mi West 6.9 mph - N/A   Clear
6:52 PM 25.0 °F 20.7 °F 6.1 °F 45% 30.14 in 10.0 mi Variable 3.5 mph - N/A   Clear
7:52 PM 25.0 °F 16.3 °F 6.1 °F 45% 30.16 in 10.0 mi West 8.1 mph - N/A   Clear
8:52 PM 25.0 °F 14.2 °F 7.0 °F 46% 30.18 in 10.0 mi WNW 11.5 mph - N/A   Clear
9:52 PM 25.0 °F 19.3 °F 6.1 °F 45% 30.20 in 10.0 mi Variable 4.6 mph - N/A   Clear
10:52 PM 23.0 °F 17.0 °F 8.1 °F 53% 30.22 in 10.0 mi WNW 4.6 mph - N/A   Clear
11:52 PM 24.1 °F 17.0 °F 9.0 °F 53% 30.22 in 10.0 mi Variable 5.8 mph - N/A   Clear